Detroit Lakes, MN

10:17 AM CST on January 17, 2017 (GMT -0600)
Detroit Lakes

Weather History for KDTL - June, 2013

Change the Weather History Date:

Sunday, June 2, 2013

  Actual Average Record
Temperature  
Mean Temperature 52 °F -  
Max Temperature 62 °F 72 °F 90 °F (1988)
Min Temperature 41 °F 44 °F 29 °F (1982)
Degree Days  
Heating Degree Days 14    
Growing Degree Days 2 (Base 50)    
Moisture  
Dew Point 40 °F    
Average Humidity 68    
Maximum Humidity 100    
Minimum Humidity 39    
Precipitation  
Precipitation 0.00 in - - ()
Sea Level Pressure  
Sea Level Pressure 30.07 in    
Wind  
Wind Speed 5 mph (NW)    
Max Wind Speed 12 mph    
Max Gust Speed -    
Visibility 9 miles    
Events Fog    
Averages and records for this station are not official NWS values.
T = Trace of Precipitation, MM = Missing Value Source: NWS Daily Summary

Daily Weather History Graph

Daily Weather History Graph

Search for Another Location

Airport or City:

Trip Planner

Search our weather history database for the weather conditions in past years. The results will help you decide how hot, cold, wet, or windy it might be!

Date:

Astronomy

Jun. 02, 2013 Rise Set
Actual Time 5:32 AM CDT 9:11 PM CDT
Civil Twilight 4:53 AM CDT 9:49 PM CDT
Nautical Twilight 4:02 AM CDT 10:41 PM CDT
Astronomical Twilight 2:51 AM CDT 11:53 PM CDT
Moon 2:20 AM CDT (6/2) 3:24 PM CDT (6/2)
Length of Visible Light 16h 56m
Length of Day
15h 39m
Waning Crescent, 30% of the Moon is Illuminated
Jun 2
Waning Crescent
Jun 8
New
Jun 16
First Quarter
Jun 23
Full
Jun 29
Last Quarter

Hourly Weather History & Observations

Time (CDT) Temp. Windchill Dew Point Humidity Pressure Visibility Wind Dir Wind Speed Gust Speed Precip Events Conditions
12:16 AM 48.2 °F - 41.0 °F 76% 30.06 in 10.0 mi NE 6.9 mph - N/A   Clear
12:35 AM 46.4 °F 43.5 °F 41.0 °F 81% 30.07 in 10.0 mi NE 5.8 mph - N/A   Clear
12:55 AM 46.4 °F - 41.0 °F 81% 30.07 in 10.0 mi Calm Calm - N/A   Clear
1:16 AM 46.4 °F - 41.0 °F 81% 30.07 in 10.0 mi Calm Calm - N/A   Clear
1:35 AM 44.6 °F 41.4 °F 39.2 °F 81% 30.07 in 10.0 mi NW 5.8 mph - N/A   Clear
1:55 AM 42.8 °F 39.3 °F 41.0 °F 93% 30.07 in 10.0 mi WNW 5.8 mph - N/A   Clear
2:16 AM 44.6 °F 42.2 °F 41.0 °F 87% 30.07 in 10.0 mi NNW 4.6 mph - N/A   Clear
2:35 AM 42.8 °F 40.1 °F 41.0 °F 93% 30.07 in 10.0 mi NW 4.6 mph - N/A   Clear
2:55 AM 42.8 °F 41.1 °F 41.0 °F 93% 30.07 in 10.0 mi NW 3.5 mph - N/A   Scattered Clouds
3:16 AM 42.8 °F 40.1 °F 41.0 °F 93% 30.08 in 10.0 mi NW 4.6 mph - N/A   Clear
3:35 AM 41.0 °F 39.0 °F 41.0 °F 100% 30.07 in 10.0 mi NW 3.5 mph - N/A   Clear
3:55 AM 42.8 °F 40.1 °F 41.0 °F 93% 30.08 in 10.0 mi NW 4.6 mph - N/A   Clear
4:16 AM 42.8 °F 40.1 °F 41.0 °F 93% 30.08 in 10.0 mi WNW 4.6 mph - N/A   Clear
4:35 AM 42.8 °F 39.3 °F 41.0 °F 93% 30.08 in 10.0 mi NW 5.8 mph - N/A   Clear
4:56 AM 42.8 °F 39.3 °F 41.0 °F 93% 30.08 in 10.0 mi NW 5.8 mph - N/A   Clear
5:16 AM 42.8 °F 39.3 °F 41.0 °F 93% 30.08 in 10.0 mi NW 5.8 mph - N/A   Clear
5:35 AM 41.0 °F 37.1 °F 41.0 °F 100% 30.09 in 7.0 mi WNW 5.8 mph - N/A   Clear
5:56 AM 42.8 °F 38.6 °F 41.0 °F 93% 30.09 in 0.2 mi NW 6.9 mph - N/A Fog Fog
6:16 AM 41.0 °F 38.0 °F 41.0 °F 100% 30.10 in 0.2 mi NNW 4.6 mph - N/A Fog Fog
6:35 AM 42.8 °F 40.1 °F 41.0 °F 93% 30.10 in 0.2 mi NW 4.6 mph - N/A Fog Fog
6:56 AM 42.8 °F 40.1 °F 42.8 °F 100% 30.10 in 0.2 mi NW 4.6 mph - N/A Fog Fog
7:16 AM 42.8 °F 38.6 °F 42.8 °F 100% 30.11 in 0.2 mi NNW 6.9 mph - N/A Fog Fog
7:35 AM 42.8 °F 39.3 °F 42.8 °F 100% 30.11 in 0.5 mi NNW 5.8 mph - N/A Fog Fog
7:56 AM 42.8 °F 40.1 °F 42.8 °F 100% 30.11 in 0.5 mi NW 4.6 mph - N/A Fog Fog
8:15 AM 42.8 °F 40.1 °F 42.8 °F 100% 30.11 in 0.2 mi NW 4.6 mph - N/A Fog Fog
8:36 AM 44.6 °F 43.1 °F 44.6 °F 100% 30.11 in 5.0 mi North 3.5 mph - N/A   Mostly Cloudy
8:55 AM 44.6 °F 43.1 °F 44.6 °F 100% 30.11 in 10.0 mi NNW 3.5 mph - N/A   Scattered Clouds
9:15 AM 46.4 °F 45.2 °F 44.6 °F 93% 30.11 in 10.0 mi North 3.5 mph - N/A   Clear
9:36 AM 50.0 °F - 44.6 °F 82% 30.11 in 10.0 mi WNW 6.9 mph - N/A   Clear
9:55 AM 51.8 °F - 46.4 °F 82% 30.11 in 10.0 mi NW 8.1 mph - N/A   Clear
10:15 AM 53.6 °F - 46.4 °F 77% 30.11 in 10.0 mi WNW 8.1 mph - N/A   Clear
10:36 AM 53.6 °F - 44.6 °F 72% 30.11 in 10.0 mi WNW 8.1 mph - N/A   Clear
10:55 AM 53.6 °F - 42.8 °F 67% 30.11 in 10.0 mi WNW 11.5 mph - N/A   Scattered Clouds
11:16 AM 55.4 °F - 42.8 °F 63% 30.11 in 10.0 mi NNW 10.4 mph - N/A   Scattered Clouds
11:35 AM 55.4 °F - 42.8 °F 63% 30.11 in 10.0 mi NNW 10.4 mph - N/A   Scattered Clouds
11:55 AM 55.4 °F - 42.8 °F 63% 30.10 in 10.0 mi NNW 8.1 mph - N/A   Scattered Clouds
12:15 PM 55.4 °F - 41.0 °F 58% 30.10 in 10.0 mi WNW 8.1 mph - N/A   Scattered Clouds
12:35 PM 57.2 °F - 41.0 °F 55% 30.09 in 10.0 mi North 9.2 mph - N/A   Scattered Clouds
12:56 PM 57.2 °F - 41.0 °F 55% 30.09 in 10.0 mi North 4.6 mph - N/A   Scattered Clouds
1:15 PM 57.2 °F - 39.2 °F 51% 30.09 in 10.0 mi WNW 8.1 mph - N/A   Scattered Clouds
1:35 PM 57.2 °F - 39.2 °F 51% 30.09 in 10.0 mi NNW 8.1 mph - N/A   Scattered Clouds
1:56 PM 59.0 °F - 39.2 °F 48% 30.08 in 10.0 mi NW 8.1 mph - N/A   Scattered Clouds
2:15 PM 59.0 °F - 37.4 °F 45% 30.08 in 10.0 mi WNW 9.2 mph - N/A   Clear
2:35 PM 60.8 °F - 39.2 °F 45% 30.08 in 10.0 mi NW 9.2 mph - N/A   Scattered Clouds
2:56 PM 60.8 °F - 37.4 °F 42% 30.07 in 10.0 mi WNW 8.1 mph - N/A   Clear
3:15 PM 60.8 °F - 37.4 °F 42% 30.07 in 10.0 mi NW 9.2 mph - N/A   Clear
3:35 PM 60.8 °F - 37.4 °F 42% 30.07 in 10.0 mi WNW 8.1 mph - N/A   Clear
3:56 PM 60.8 °F - 37.4 °F 42% 30.07 in 10.0 mi NW 9.2 mph - N/A   Clear
4:15 PM 60.8 °F - 39.2 °F 45% 30.06 in 10.0 mi NW 10.4 mph - N/A   Clear
4:36 PM 62.6 °F - 37.4 °F 39% 30.05 in 10.0 mi WNW 8.1 mph - N/A   Clear
4:55 PM 62.6 °F - 37.4 °F 39% 30.05 in 10.0 mi NW 9.2 mph - N/A   Clear
5:15 PM 60.8 °F - 37.4 °F 42% 30.04 in 10.0 mi NW 8.1 mph - N/A   Clear
5:36 PM 62.6 °F - 37.4 °F 39% 30.04 in 10.0 mi NW 10.4 mph - N/A   Clear
5:55 PM 60.8 °F - 35.6 °F 39% 30.04 in 10.0 mi North 4.6 mph - N/A   Clear
6:15 PM 60.8 °F - 35.6 °F 39% 30.03 in 10.0 mi North 6.9 mph - N/A   Clear
6:36 PM 60.8 °F - 35.6 °F 39% 30.03 in 10.0 mi North 3.5 mph - N/A   Clear
6:55 PM 60.8 °F - 37.4 °F 42% 30.03 in 10.0 mi NNW 4.6 mph - N/A   Clear
7:15 PM 60.8 °F - 35.6 °F 39% 30.03 in 10.0 mi NNW 8.1 mph - N/A   Clear
7:36 PM 60.8 °F - 35.6 °F 39% 30.03 in 10.0 mi NNW 6.9 mph - N/A   Clear
7:55 PM 59.0 °F - 37.4 °F 45% 30.03 in 10.0 mi NNW 5.8 mph - N/A   Clear
8:15 PM 59.0 °F - 35.6 °F 42% 30.03 in 10.0 mi North 3.5 mph - N/A   Clear
8:36 PM 59.0 °F - 37.4 °F 45% 30.03 in 10.0 mi NNW 5.8 mph - N/A   Clear
8:55 PM 59.0 °F - 41.0 °F 51% 30.03 in 10.0 mi Calm Calm - N/A   Clear
9:15 PM 57.2 °F - 41.0 °F 55% 30.03 in 10.0 mi Calm Calm - N/A   Clear
9:36 PM 55.4 °F - 41.0 °F 58% 30.04 in 10.0 mi Calm Calm - N/A   Clear
9:56 PM 55.4 °F - 37.4 °F 51% 30.04 in 10.0 mi NNW 3.5 mph - N/A   Clear
10:15 PM 55.4 °F - 41.0 °F 58% 30.05 in 10.0 mi NNW 3.5 mph - N/A   Clear
10:35 PM 53.6 °F - 41.0 °F 62% 30.05 in 10.0 mi NNW 3.5 mph - N/A   Clear
10:56 PM 53.6 °F - 42.8 °F 67% 30.05 in 10.0 mi NW 3.5 mph - N/A   Clear
11:15 PM 53.6 °F - 41.0 °F 62% 30.05 in 10.0 mi Calm Calm - N/A   Clear
11:35 PM 53.6 °F - 42.8 °F 67% 30.05 in 10.0 mi Calm Calm - N/A   Clear
11:56 PM 51.8 °F - 42.8 °F 71% 30.06 in 10.0 mi Calm Calm - N/A   Clear